Regional Weather Roundup
Issued by NWS

Home | Current Version | Previous Version | Text Only | Print | Product List | Glossary On
Versions: 1 2 3 4 5 6 7 8 9 10 11 12 13 14 15 16 17 18 19 20 21 22 23 24 25 26 27 28 29 30 31 32 33 34 35 36 37 38 39 40 41 42 43 44 45 46 47 48 49 50
000
ASUS43 KMKX 270300
RWRWI

WISCONSIN REGIONAL WEATHER ROUNDUP
NATIONAL WEATHER SERVICE MILWAUKEE/SULLIVAN WI
1000 PM CDT WED APR 26 2017

NOTE: "FAIR" INDICATES FEW OR NO CLOUDS BELOW 12,000 FEET WITH NO
SIGNIFICANT WEATHER AND/OR OBSTRUCTIONS TO VISIBILITY.

WIZ001-002-006>008-014>016-023>028-270400-
NORTHWEST WISCONSIN

CITY           SKY/WX    TMP DP  RH WIND       PRES   REMARKS
SUPERIOR ARPT  CLOUDY    31  26  84 CALM      29.65R
ASHLAND        LGT SNOW  30  29  96 N12       29.62R VSB 1   WCI  20
HAYWARD        CLOUDY    32  28  85 N8        29.58R WCI  25
SIREN          CLOUDY    34  30  86 CALM      29.60R
CUMBERLAND     CLOUDY    32  30  93 N10       29.57R WCI  24
RICE LAKE      CLOUDY    35  31  85 N12       29.57S WCI  27
CHETEK         CLOUDY    35  33  92 N7        29.56R WCI  29
LADYSMITH      CLOUDY    35  32  88 N7        29.56R WCI  29
EAU CLAIRE     NOT AVBL
MENOMONIE      CLOUDY    38  35  90 NW7       29.56R WCI  32
NEW RICHMOND   CLOUDY    36  33  89 N9        29.58R WCI  29
OSCEOLA        CLOUDY    36  32  83 N8        29.61S WCI  30
$$

WIZ003>005-009-010-017-018-270400-
NORTH CENTRAL WISCONSIN

CITY           SKY/WX    TMP DP  RH WIND       PRES   REMARKS
MANITOWISH WTR MIX PCPN  31  31 100 N7        29.52S WCI  25
ARBOR VITAE    CLOUDY    34  32  94 N9        29.50S WCI  27
WOODRUFF       CLOUDY    34  32  94 N9        29.50S WCI  27
RHINELANDER    CLOUDY    36  36 100 N6        29.49F WCI  31
EAGLE RIVER    CLOUDY    33  32  98 N8        29.50F WCI  26
LAND O LAKES   CLOUDY    32  32  99 N6        29.54R FOG     WCI  27
PHILLIPS       CLOUDY    32  32 100 N7        29.51F WCI  26
TOMAHAWK       CLOUDY    35  33  93 N6        29.51S WCI  30
MEDFORD        CLOUDY    36  35  96 N6        29.50R WCI  31
MERRILL        CLOUDY    39  39 100 N6        29.49F WCI  34
$$

WIZ029-030-035-036-043>047-270400-
CENTRAL WISCONSIN

CITY           SKY/WX    TMP DP  RH WIND       PRES   REMARKS
WAUSAU         CLOUDY    42  40  92 NW8       29.45F
MOSINEE        NOT AVBL
MARSHFIELD     CLOUDY    40  37  89 NW12      29.47F WCI  33
STEVENS POINT  CLOUDY    41  39  91 NW6       29.48F
WAUPACA        CLOUDY    49  46  92 W7        29.47F
WAUTOMA        CLOUDY    46  43  89 NW9       29.47F
WISC RAPIDS    CLOUDY    43  41  93 NW10      29.48F
CAMP DOUGLAS   CLOUDY    43  41  93 NW8       29.49F
$$

WIZ011>013-019>022-031-037>040-048>050-270400-
NORTHEAST WISCONSIN

CITY           SKY/WX    TMP DP  RH WIND       PRES   REMARKS
ANTIGO         CLOUDY    40  40  99 NW9       29.47F WCI  34
SHAWANO        CLOUDY    52  48  86 W7        29.46F
OCONTO         CLOUDY    57  52  82 W13       29.44R
STURGEON BAY   CLOUDY    62  55  77 SW7       29.43F
GREEN BAY      CLOUDY    56  53  90 W13       29.44F
MANITOWOC      NOT AVBL
APPLETON       CLOUDY    48  48 100 W13       29.44F FOG
CLINTONVILLE   CLOUDY    48  45  87 NW9       29.45F
OSHKOSH        CLOUDY    50  48  93 NW7       29.45S
$$

WIZ032>034-041-042-053>061-270400-
SOUTHWEST WISCONSIN

CITY           SKY/WX    TMP DP  RH WIND       PRES   REMARKS
LA CROSSE      CLOUDY    44  39  82 N14       29.52F
SPARTA         CLOUDY    41  40  97 NW6       29.52S
VIROQUA        CLOUDY    40  40  99 W8        29.51S WCI  35
BOSCOBEL       CLOUDY    46  41  82 W7        29.52R
PRAIRIE DU CHI CLOUDY    44  39  82 NW12      29.52S
PLATTEVILLE    CLOUDY    46  45  96 NW10      29.50R
$$

WIZ056-057-062-063-064-067-068-270400-
SOUTH CENTRAL WISCONSIN

CITY           SKY/WX    TMP DP  RH WIND       PRES   REMARKS
REEDSBURG      CLOUDY    45  45 100 NW9       29.48F
BARABOO/DELLS  CLOUDY    46  44  94 W6        29.47S FOG
LONE ROCK      NOT AVBL
MINERAL POINT  CLOUDY    46  46 100 W10       29.48S
MADISON        CLOUDY    51  47  86 W6        29.46S
MIDDLETON      CLOUDY    51  48  89 NW7       29.47F
WATERTOWN      CLOUDY    53  53 100 W6        29.45F
MONROE         CLOUDY    48  46  93 W8        29.47R
JANESVILLE     CLOUDY    54  52  94 W3        29.46F
$$

WIZ051-052-058>065-066-070>072-270400-
SOUTHEAST WISCONSIN

CITY           SKY/WX    TMP DP  RH WIND       PRES   REMARKS
MILWAUKEE      CLOUDY    62  56  80 W9        29.45R
WAUKESHA       NOT AVBL
MILWAUKEE/TIMM CLOUDY    57  50  77 W9        29.46R
RACINE         CLOUDY    62  54  74 SW6       29.47R
KENOSHA        CLOUDY    61  54  77 SW6       29.46R
FOND DU LAC    CLOUDY    52  48  86 NW10      29.45F
SHEBOYGAN      CLOUDY    59  56  89 W12       29.44R
WEST BEND      RAIN      55  54  94 W7        29.45S
JUNEAU         LGT RAIN  53  51  94 CALM      29.46F
$$

LSZ147-162-270400-
LAKE SUPERIOR

STATION/POSITION TIME  TEMP    WIND        PRES    WAVE
                       AIR SEA DIR/SP/G            HT/PER
                 (UTC) (F)     (DEG/KT/KT) (MB)    (FT/S)
DEVILS ISLAND    0200   29     360/ 19/ 23 1004.2R
SAXON HARBOR     0240   32      20/ 16/ 20 1003.0R
$$

LMZ867-665-643>646-270400-
LAKE MICHIGAN

STATION/POSITION TIME  TEMP    WIND        PRES    WAVE
                       AIR SEA DIR/SP/G            HT/PER
                 (UTC) (F)     (DEG/KT/KT) (MB)    (FT/S)
CHAMBERS ISLAND  0240   58     170/  5/ 11  996.3R
N MID LAKE BUOY  0150   41 37  160/  8/ 12  997.9R   2/ 5
NORTHPORT PIER   0240   50     150/  2/  5  997.0F
KEWAUNEE LAKESHO 0224   61     230/  5/  6  996.5
SHEBOYGAN LAKESH 0200   60     200/  3/  4  996.3F
PORT WASHINGTON  0240   62     280/  7/ 12  998.0R
MILWAUKEE LAKESH 0230   62     270/ 11/ 14   N/A
S MID LAKE BUOY  0150   51 42  240/  4/  4  997.7R   1
KENOSHA   LAKESH 0200   63     250/  5/  9  997.3
$$

TC  - TEMPERATURE IN CELSIUS
VSB - VISIBILITY IN STATUTE MILES
WCI - WIND CHILL INDEX
HX  - HEAT INDEX





USA.gov is the U.S. government's official web portal to all federal, state and local government web resources and services.